SCP
0 0 0 0 -0 -0 -0 -0 -0 0 0 0 0 0 0 0 0 0 0 0 0 0 0 0 0 0 1 1 1 1 1 0 0 0 0 0 0 0 0 0 0 0 0
0 0 0 0 0 0 0 0 0 0 0 0 0 1 0 0 0 0 0 0 0 0 0 0 0 1 1 1 1 1 0 0 0 0 0 0 0 0 0 0 0 0 0
0 0 0 0 0 0 0 0 0 0 0 0 1 1 0 0 0 0 0 0 1 0 0 1 1 1 1 1 1 1 0 0 0 0 0 0 0 0 0 0 0 0 0
0 0 0 0 0 0 0 0 0 0 0 0 0 0 0 0 0 0 0 0 0 1 1 1 1 1 2 2 1 0 0 0 0 0 0 0 0 0 0 0 0 0 0
0 0 0 0 0 0 0 0 0 0 0 0 0 0 0 0 0 0 0 0 0 0 0 1 1 2 3 2 1 0 0 0 0 0 0 0 0 0 0 0 0 0 0
0 0 0 0 0 0 0 0 0 0 0 0 0 0 0 0 0 0 0 0 0 -0 -0 1 2 2 3 4 2 0 0 0 0 0 0 0 0 0 0 0 0 0 0
0 0 0 0 0 0 0 0 0 0 0 0 0 0 0 0 0 0 0 0 0 -0 -0 -1 1 1 3 3 1 0 0 0 0 0 0 0 0 0 0 0 0 0 0
0 0 -0 -0 -0 -0 0 0 0 0 0 0 0 0 0 0 0 0 0 0 0 -0 -0 -0 -0 0 1 1 0 0 0 0 0 0 0 0 0 0 0 0 0 0 0
-0 -0 -0 -0 -0 -0 -0 -0 0 0 0 0 0 0 0 0 0 0 0 0 0 -0 -0 -0 -0 -0 0 0 0 0 0 0 0 0 0 0 0 0 0 0 0 0 0
-0 -0 -0 -0 -0 -0 -0 -0 -0 0 0 0 0 0 0 0 0 0 0 0 0 0 -0 -0 -0 0 0 0 0 0 0 0 0 0 0 0 0 0 0 0 0 0 0
-0 -0 -0 -0 -0 -0 -0 -0 -0 -0 -0 0 0 0 0 0 0 0 0 0 0 0 0 0 0 0 0 0 0 0 0 0 0 0 0 0 0 0 0 0 0 0 0
-0 -0 -0 -0 -0 -0 -0 -0 -0 -0 -0 -0 -0 0 0 0 0 0 0 0 0 0 0 0 0 0 0 0 0 0 0 0 0 0 0 0 0 0 0 0 0 0 0
-0 -0 -0 -0 -0 -0 -0 0 0 0 0 0 0 0 0 0 0 0 0 0 0 0 0 0 0 0 0 0 0 0 0 0 0 0 0 0 0 0 0 0 0 0 0
-0 -0 0 0 0 0 0 0 0 0 -0 -0 -0 -0 0 0 0 0 0 0 0 0 0 0 0 0 0 0 0 0 0 0 0 0 0 0 0 0 0 0 0 0 0
0 0 0 0 0 0 0 0 0 0 0 0 -0 -0 -0 0 0 0 0 0 0 0 0 0 0 0 0 0 0 0 0 0 0 0 0 0 0 0 0 0 0 0 0
0 0 -0 -0 0 0 0 0 0 0 0 0 0 0 0 -0 0 0 0 0 0 0 0 0 0 0 0 0 0 0 0 0 0 0 0 0 0 0 0 0 0 0 0
-0 -0 -0 -0 -0 -0 -0 -0 -0 -0 0 0 -0 -0 -0 0 0 0 0 0 0 0 0 0 0 0 0 0 0 0 0 0 0 0 0 0 0 0 0 0 0 0 0
-0 -0 -0 -0 -0 0 0 -0 0 -0 -0 -0 -0 0 -0 -0 0 0 0 0 0 0 0 0 0 0 0 0 0 0 0 0 0 0 0 0 0 0 0 0 0 0 0
0 0 0 0 0 0 0 0 0 0 -0 -0 0 0 0 -0 0 0 0 0 0 0 0 0 0 0 0 0 0 0 0 0 0 0 0 0 0 0 0 0 0 0 0
-0 0 0 0 0 0 0 0 -0 0 -0 -0 -0 0 0 0 0 0 0 0 0 0 0 0 0 0 0 0 0 0 0 0 0 0 0 0 0 0 0 0 0 0 0
-0 -0 -0 0 0 0 0 0 0 0 0 0 0 -0 0 0 0 0 0 0 0 0 0 0 0 0 0 0 0 0 0 0 0 0 0 0 0 0 0 0 0 0 0
-0 -0 -0 -0 0 0 0 0 0 0 0 0 0 0 -0 0 0 0 -0 0 -0 0 0 0 0 0 0 0 0 0 0 0 0 0 0 0 0 0 0 0 0 0 0
-0 -0 -0 -0 0 0 0 0 0 0 0 0 0 0 -0 -0 0 -0 0 0 -0 0 0 0 0 0 0 0 0 0 0 0 0 0 0 0 0 0 0 0 0 0 0
-0 -0 -0 -0 -0 0 0 0 0 0 0 0 -0 0 -0 -0 -0 0 -0 -0 -0 0 0 0 0 0 0 0 0 0 0 0 0 0 0 0 0 0 0 0 0 0 0
-0 -0 -0 -0 -0 -0 0 0 0 0 0 0 0 0 0 0 -0 -0 -0 -0 0 0 -0 -0 0 0 0 0 0 0 0 0 0 0 0 0 0 0 0 0 0 0 0
-0 0 -0 -0 -0 -0 0 0 0 0 0 0 0 0 0 0 0 0 0 -0 -0 0 0 0 -0 0 0 0 0 0 0 0 0 0 0 0 0 0 0 0 0 0 0
Wind_Speed_500mb
71 92 90 73 62 52 22 3 31 46 64 71 81 75 70 58 59 61 62 60 59 57 57 54 48 44 54 53 55 53 52 51 49 42 34 31 23 27 28 25 22 22 19
95 90 96 93 88 83 67 36 13 22 41 48 71 82 78 69 69 68 69 64 58 57 61 65 65 60 54 61 63 60 56 51 49 44 32 14 17 29 31 27 25 24 21
87 89 90 92 84 87 85 71 53 28 5 33 43 51 66 70 74 75 73 70 69 64 67 70 70 72 66 66 69 65 59 56 51 46 33 16 16 35 30 30 29 28 25
75 69 71 74 77 77 72 69 64 47 30 6 22 33 43 65 66 64 60 57 70 74 79 79 75 74 79 73 74 76 63 58 55 51 52 43 26 32 26 33 32 29 27
76 73 72 69 66 67 67 62 58 52 49 42 22 14 19 18 30 53 62 56 50 46 66 68 83 78 82 87 84 85 78 67 59 56 54 54 49 42 30 34 36 30 30
72 76 72 70 68 65 64 61 55 51 46 43 38 39 41 31 31 35 66 87 115 99 114 90 83 79 82 95 99 95 87 74 62 54 55 50 47 57 45 32 41 31 25
70 72 79 80 79 74 69 68 63 56 55 50 44 44 41 40 37 40 45 73 99 111 114 91 73 74 82 98 106 104 100 87 67 57 55 48 42 43 45 42 34 35 32
63 68 71 75 79 77 70 64 61 67 61 61 59 54 51 45 37 46 57 64 79 110 100 93 90 79 83 93 100 108 87 77 59 58 56 46 44 41 41 40 37 29 38
61 68 75 73 78 79 79 75 71 59 55 63 66 68 67 64 57 49 53 68 73 80 90 95 96 93 90 99 96 99 85 69 57 61 50 44 44 41 40 35 31 30 27
62 67 67 66 67 63 62 70 77 73 71 61 61 68 74 74 77 72 67 64 70 80 91 90 81 89 91 82 84 78 55 68 52 55 50 40 43 44 40 34 31 27 24
57 63 62 60 62 64 76 71 80 78 83 77 65 64 69 79 82 82 80 77 75 79 76 76 93 89 87 90 88 80 66 88 95 66 52 38 52 47 42 36 30 26 24
55 65 62 71 71 76 81 88 82 89 90 88 89 87 67 70 79 89 87 86 84 79 82 76 92 96 81 81 91 84 67 73 84 73 60 57 60 54 45 36 31 27 24
46 55 59 63 64 80 79 80 86 89 92 90 89 94 97 93 79 83 90 94 86 83 83 73 75 86 91 87 88 103 92 79 95 81 65 62 61 54 45 37 30 28 27
55 59 68 69 66 83 81 79 81 84 89 92 87 88 91 98 96 89 89 94 93 81 82 80 70 75 97 97 83 87 98 78 83 71 64 60 53 52 43 35 30 30 28
65 66 67 73 78 80 85 81 86 86 90 92 92 90 90 91 95 93 92 89 96 87 74 79 80 91 102 104 101 100 78 85 86 65 65 54 52 40 35 31 30 27 24
60 63 64 66 72 75 81 81 87 87 90 96 95 99 94 91 91 87 86 89 90 87 76 72 89 102 105 106 104 91 86 92 76 71 62 52 45 41 35 31 28 26 22
56 58 59 66 73 70 73 80 87 81 91 95 95 100 92 92 86 83 81 88 77 76 71 64 92 105 107 103 93 81 85 81 71 68 61 51 41 34 28 25 24 20 21
53 58 58 61 68 64 69 74 79 87 83 89 94 112 100 97 85 80 74 78 62 59 55 67 90 105 104 98 78 78 76 73 67 60 50 44 39 31 24 23 24 22 22
45 46 51 53 62 62 65 66 73 81 83 90 98 107 112 95 84 80 77 55 36 33 53 79 94 114 88 83 85 83 86 79 65 51 43 39 32 24 28 30 26 26 26
43 49 54 51 59 57 60 67 69 72 77 85 87 96 109 106 91 82 77 57 43 44 42 55 69 72 97 94 91 96 83 69 56 49 33 32 27 31 31 31 28 27 28
44 49 50 51 53 54 55 62 60 70 68 72 82 79 100 104 106 79 76 65 69 77 79 71 70 79 68 82 68 76 67 54 45 33 35 32 27 25 24 25 23 25 28
42 51 53 53 49 51 49 58 63 60 62 66 76 78 71 95 98 95 81 80 81 74 79 71 76 87 75 69 61 52 52 41 33 24 15 11 12 14 20 26 28 27 25
40 47 51 51 41 49 51 53 60 58 57 66 65 66 68 63 75 88 82 83 85 87 84 71 70 72 68 57 55 45 36 27 15 9 4 8 13 14 19 15 10 7 11
40 44 51 49 44 48 50 52 56 57 55 59 63 55 55 54 54 60 69 73 82 83 82 77 74 73 69 61 48 36 29 25 16 8 4 8 10 13 11 6 2 6 16
42 44 50 54 45 46 48 52 57 58 61 59 55 54 54 49 43 43 52 60 65 69 71 67 67 70 65 52 39 35 31 27 20 15 11 12 12 7 6 5 8 15 23
33 46 50 56 53 42 46 50 55 59 58 56 56 51 49 50 47 34 31 42 50 57 62 65 64 58 52 42 35 34 30 27 22 14 12 8 5 2 7 9 15 18 23
Wind_Direction_500mb
35 35 47 52 47 45 47 346 237 243 256 253 247 244 245 247 249 250 252 253 255 258 261 260 251 246 250 253 253 253 256 265 270 272 267 272 266 206 203 208 222 235 251
30 29 37 46 42 37 41 55 76 228 241 268 260 251 253 250 248 250 256 258 262 264 268 273 274 266 257 248 249 251 256 261 267 260 250 212 188 187 190 200 218 231 231
21 20 24 30 30 30 31 30 36 51 221 237 242 260 257 252 247 250 252 255 257 259 264 265 269 273 263 262 252 248 255 259 259 248 234 198 203 184 189 193 205 218 235
27 20 16 15 12 12 16 22 23 25 34 25 237 252 258 257 259 250 252 259 263 261 267 270 268 265 268 264 263 258 249 249 244 242 236 227 222 191 185 194 204 220 235
20 13 6 2 1 2 0 2 7 13 15 18 21 344 287 263 242 241 262 281 269 279 283 276 269 266 265 261 261 255 251 243 239 239 236 229 231 219 198 197 201 219 240
12 11 9 6 5 4 359 357 353 351 352 354 352 348 348 327 286 255 239 243 254 259 270 273 272 265 262 259 254 256 251 242 238 238 240 239 232 220 215 206 206 217 217
6 6 7 6 3 4 359 355 351 348 338 330 328 324 326 334 312 277 260 245 239 254 262 270 278 275 265 264 256 251 249 240 225 236 234 234 235 235 239 232 210 202 205
0 0 3 5 3 1 1 356 351 344 339 331 321 313 309 308 307 285 270 263 260 255 269 280 280 275 271 270 267 257 250 229 221 227 229 232 237 238 235 230 219 201 206
357 356 1 3 0 358 359 360 357 351 335 329 323 315 307 301 295 285 273 276 283 280 278 280 280 282 281 267 269 256 241 237 228 215 221 229 237 237 230 222 218 211 207
356 357 357 357 354 352 350 349 352 353 351 340 323 314 308 302 295 288 280 271 274 281 282 283 281 285 278 261 258 223 234 245 240 222 216 224 233 228 225 220 220 223 229
356 357 357 355 350 352 355 347 348 347 341 349 341 322 308 302 296 289 282 279 274 268 274 279 273 281 269 262 241 238 232 257 239 222 215 223 229 222 218 216 220 228 233
0 2 360 355 358 355 353 353 348 349 352 346 344 341 325 307 297 295 288 280 276 269 266 264 265 277 250 254 238 229 223 233 221 219 219 214 214 214 214 214 216 226 238
355 359 359 355 356 355 352 348 351 352 353 348 345 342 336 327 311 297 289 286 280 274 265 259 256 264 260 247 245 240 228 219 221 216 211 211 208 208 208 209 212 223 236
5 2 1 357 351 352 351 346 345 346 352 352 345 341 335 326 320 309 295 287 282 272 267 256 251 259 258 240 228 203 205 232 213 209 207 204 217 213 208 206 212 223 237
9 6 359 356 355 355 353 349 347 352 350 350 347 340 337 325 319 318 305 290 284 274 262 256 253 251 240 232 217 206 215 213 203 205 201 212 209 209 210 210 214 230 235
4 4 2 360 359 355 357 347 347 355 356 356 349 347 341 333 324 322 317 299 286 277 262 244 245 237 230 229 217 206 200 201 199 192 198 199 205 207 207 211 222 231 244
358 0 4 1 359 356 2 354 357 358 3 2 353 351 349 340 334 330 324 309 291 275 259 250 239 227 217 212 203 191 192 197 191 194 195 198 202 206 214 220 231 250 266
350 355 357 357 358 359 2 358 3 2 2 2 2 3 357 353 346 340 339 320 297 262 244 246 224 215 215 207 192 189 190 189 186 187 190 196 198 201 214 229 241 252 260
360 360 1 358 359 1 0 0 6 4 5 7 9 10 7 360 1 10 10 347 311 267 251 208 206 211 188 187 181 190 180 176 176 179 186 196 201 210 224 236 246 251 244
359 360 357 360 1 1 1 6 4 4 7 6 3 14 15 12 12 20 31 37 72 90 137 150 153 147 163 173 170 171 169 167 170 168 184 201 204 220 237 245 242 233 242
0 359 360 4 2 4 5 11 7 6 7 3 8 6 17 19 20 28 32 54 67 78 71 86 116 128 130 140 150 152 155 158 162 166 189 207 215 231 238 244 247 253 263
1 3 3 2 8 10 11 16 12 9 11 13 12 11 9 22 23 28 46 50 56 66 75 63 73 92 92 97 114 126 136 142 147 151 172 227 238 257 271 269 268 273 275
1 1 4 4 17 19 14 12 15 13 11 14 21 22 20 16 29 32 36 43 48 50 52 50 58 66 76 76 86 92 100 107 113 139 175 282 283 264 260 263 262 272 282
9 6 12 12 16 15 16 16 12 13 10 12 22 28 28 21 18 39 44 41 41 44 44 44 46 49 55 58 62 74 78 80 88 113 176 225 232 232 209 218 262 290 294
25 19 17 18 16 13 14 14 11 8 10 16 19 28 36 32 19 24 41 48 46 43 44 40 40 43 45 44 51 56 57 66 75 85 119 157 174 175 159 214 267 285 292
6 19 24 23 21 18 15 14 14 15 12 15 16 20 28 33 36 27 33 44 44 41 39 37 36 39 42 43 45 51 54 67 81 100 122 109 126 204 254 259 268 276 286
Wind_Speed_850mb
71 92 90 73 62 52 22 3 31 46 64 71 81 75 70 58 59 61 62 60 59 57 57 54 48 44 54 53 55 53 52 51 49 42 34 31 23 27 28 25 22 22 19
95 90 96 93 88 83 67 36 13 22 41 48 71 82 78 69 69 68 69 64 58 57 61 65 65 60 54 61 63 60 56 51 49 44 32 14 17 29 31 27 25 24 21
87 89 90 92 84 87 85 71 53 28 5 33 43 51 66 70 74 75 73 70 69 64 67 70 70 72 66 66 69 65 59 56 51 46 33 16 16 35 30 30 29 28 25
75 69 71 74 77 77 72 69 64 47 30 6 22 33 43 65 66 64 60 57 70 74 79 79 75 74 79 73 74 76 63 58 55 51 52 43 26 32 26 33 32 29 27
76 73 72 69 66 67 67 62 58 52 49 42 22 14 19 18 30 53 62 56 50 46 66 68 83 78 82 87 84 85 78 67 59 56 54 54 49 42 30 34 36 30 30
72 76 72 70 68 65 64 61 55 51 46 43 38 39 41 31 31 35 66 87 115 99 114 90 83 79 82 95 99 95 87 74 62 54 55 50 47 57 45 32 41 31 25
70 72 79 80 79 74 69 68 63 56 55 50 44 44 41 40 37 40 45 73 99 111 114 91 73 74 82 98 106 104 100 87 67 57 55 48 42 43 45 42 34 35 32
63 68 71 75 79 77 70 64 61 67 61 61 59 54 51 45 37 46 57 64 79 110 100 93 90 79 83 93 100 108 87 77 59 58 56 46 44 41 41 40 37 29 38
61 68 75 73 78 79 79 75 71 59 55 63 66 68 67 64 57 49 53 68 73 80 90 95 96 93 90 99 96 99 85 69 57 61 50 44 44 41 40 35 31 30 27
62 67 67 66 67 63 62 70 77 73 71 61 61 68 74 74 77 72 67 64 70 80 91 90 81 89 91 82 84 78 55 68 52 55 50 40 43 44 40 34 31 27 24
57 63 62 60 62 64 76 71 80 78 83 77 65 64 69 79 82 82 80 77 75 79 76 76 93 89 87 90 88 80 66 88 95 66 52 38 52 47 42 36 30 26 24
55 65 62 71 71 76 81 88 82 89 90 88 89 87 67 70 79 89 87 86 84 79 82 76 92 96 81 81 91 84 67 73 84 73 60 57 60 54 45 36 31 27 24
46 55 59 63 64 80 79 80 86 89 92 90 89 94 97 93 79 83 90 94 86 83 83 73 75 86 91 87 88 103 92 79 95 81 65 62 61 54 45 37 30 28 27
55 59 68 69 66 83 81 79 81 84 89 92 87 88 91 98 96 89 89 94 93 81 82 80 70 75 97 97 83 87 98 78 83 71 64 60 53 52 43 35 30 30 28
65 66 67 73 78 80 85 81 86 86 90 92 92 90 90 91 95 93 92 89 96 87 74 79 80 91 102 104 101 100 78 85 86 65 65 54 52 40 35 31 30 27 24
60 63 64 66 72 75 81 81 87 87 90 96 95 99 94 91 91 87 86 89 90 87 76 72 89 102 105 106 104 91 86 92 76 71 62 52 45 41 35 31 28 26 22
56 58 59 66 73 70 73 80 87 81 91 95 95 100 92 92 86 83 81 88 77 76 71 64 92 105 107 103 93 81 85 81 71 68 61 51 41 34 28 25 24 20 21
53 58 58 61 68 64 69 74 79 87 83 89 94 112 100 97 85 80 74 78 62 59 55 67 90 105 104 98 78 78 76 73 67 60 50 44 39 31 24 23 24 22 22
45 46 51 53 62 62 65 66 73 81 83 90 98 107 112 95 84 80 77 55 36 33 53 79 94 114 88 83 85 83 86 79 65 51 43 39 32 24 28 30 26 26 26
43 49 54 51 59 57 60 67 69 72 77 85 87 96 109 106 91 82 77 57 43 44 42 55 69 72 97 94 91 96 83 69 56 49 33 32 27 31 31 31 28 27 28
44 49 50 51 53 54 55 62 60 70 68 72 82 79 100 104 106 79 76 65 69 77 79 71 70 79 68 82 68 76 67 54 45 33 35 32 27 25 24 25 23 25 28
42 51 53 53 49 51 49 58 63 60 62 66 76 78 71 95 98 95 81 80 81 74 79 71 76 87 75 69 61 52 52 41 33 24 15 11 12 14 20 26 28 27 25
40 47 51 51 41 49 51 53 60 58 57 66 65 66 68 63 75 88 82 83 85 87 84 71 70 72 68 57 55 45 36 27 15 9 4 8 13 14 19 15 10 7 11
40 44 51 49 44 48 50 52 56 57 55 59 63 55 55 54 54 60 69 73 82 83 82 77 74 73 69 61 48 36 29 25 16 8 4 8 10 13 11 6 2 6 16
42 44 50 54 45 46 48 52 57 58 61 59 55 54 54 49 43 43 52 60 65 69 71 67 67 70 65 52 39 35 31 27 20 15 11 12 12 7 6 5 8 15 23
33 46 50 56 53 42 46 50 55 59 58 56 56 51 49 50 47 34 31 42 50 57 62 65 64 58 52 42 35 34 30 27 22 14 12 8 5 2 7 9 15 18 23
Wind_Direction_850mb
35 35 47 52 47 45 47 346 237 243 256 253 247 244 245 247 249 250 252 253 255 258 261 260 251 246 250 253 253 253 256 265 270 272 267 272 266 206 203 208 222 235 251
30 29 37 46 42 37 41 55 76 228 241 268 260 251 253 250 248 250 256 258 262 264 268 273 274 266 257 248 249 251 256 261 267 260 250 212 188 187 190 200 218 231 231
21 20 24 30 30 30 31 30 36 51 221 237 242 260 257 252 247 250 252 255 257 259 264 265 269 273 263 262 252 248 255 259 259 248 234 198 203 184 189 193 205 218 235
27 20 16 15 12 12 16 22 23 25 34 25 237 252 258 257 259 250 252 259 263 261 267 270 268 265 268 264 263 258 249 249 244 242 236 227 222 191 185 194 204 220 235
20 13 6 2 1 2 0 2 7 13 15 18 21 344 287 263 242 241 262 281 269 279 283 276 269 266 265 261 261 255 251 243 239 239 236 229 231 219 198 197 201 219 240
12 11 9 6 5 4 359 357 353 351 352 354 352 348 348 327 286 255 239 243 254 259 270 273 272 265 262 259 254 256 251 242 238 238 240 239 232 220 215 206 206 217 217
6 6 7 6 3 4 359 355 351 348 338 330 328 324 326 334 312 277 260 245 239 254 262 270 278 275 265 264 256 251 249 240 225 236 234 234 235 235 239 232 210 202 205
0 0 3 5 3 1 1 356 351 344 339 331 321 313 309 308 307 285 270 263 260 255 269 280 280 275 271 270 267 257 250 229 221 227 229 232 237 238 235 230 219 201 206
357 356 1 3 0 358 359 360 357 351 335 329 323 315 307 301 295 285 273 276 283 280 278 280 280 282 281 267 269 256 241 237 228 215 221 229 237 237 230 222 218 211 207
356 357 357 357 354 352 350 349 352 353 351 340 323 314 308 302 295 288 280 271 274 281 282 283 281 285 278 261 258 223 234 245 240 222 216 224 233 228 225 220 220 223 229
356 357 357 355 350 352 355 347 348 347 341 349 341 322 308 302 296 289 282 279 274 268 274 279 273 281 269 262 241 238 232 257 239 222 215 223 229 222 218 216 220 228 233
0 2 360 355 358 355 353 353 348 349 352 346 344 341 325 307 297 295 288 280 276 269 266 264 265 277 250 254 238 229 223 233 221 219 219 214 214 214 214 214 216 226 238
355 359 359 355 356 355 352 348 351 352 353 348 345 342 336 327 311 297 289 286 280 274 265 259 256 264 260 247 245 240 228 219 221 216 211 211 208 208 208 209 212 223 236
5 2 1 357 351 352 351 346 345 346 352 352 345 341 335 326 320 309 295 287 282 272 267 256 251 259 258 240 228 203 205 232 213 209 207 204 217 213 208 206 212 223 237
9 6 359 356 355 355 353 349 347 352 350 350 347 340 337 325 319 318 305 290 284 274 262 256 253 251 240 232 217 206 215 213 203 205 201 212 209 209 210 210 214 230 235
4 4 2 360 359 355 357 347 347 355 356 356 349 347 341 333 324 322 317 299 286 277 262 244 245 237 230 229 217 206 200 201 199 192 198 199 205 207 207 211 222 231 244
358 0 4 1 359 356 2 354 357 358 3 2 353 351 349 340 334 330 324 309 291 275 259 250 239 227 217 212 203 191 192 197 191 194 195 198 202 206 214 220 231 250 266
350 355 357 357 358 359 2 358 3 2 2 2 2 3 357 353 346 340 339 320 297 262 244 246 224 215 215 207 192 189 190 189 186 187 190 196 198 201 214 229 241 252 260
360 360 1 358 359 1 0 0 6 4 5 7 9 10 7 360 1 10 10 347 311 267 251 208 206 211 188 187 181 190 180 176 176 179 186 196 201 210 224 236 246 251 244
359 360 357 360 1 1 1 6 4 4 7 6 3 14 15 12 12 20 31 37 72 90 137 150 153 147 163 173 170 171 169 167 170 168 184 201 204 220 237 245 242 233 242
0 359 360 4 2 4 5 11 7 6 7 3 8 6 17 19 20 28 32 54 67 78 71 86 116 128 130 140 150 152 155 158 162 166 189 207 215 231 238 244 247 253 263
1 3 3 2 8 10 11 16 12 9 11 13 12 11 9 22 23 28 46 50 56 66 75 63 73 92 92 97 114 126 136 142 147 151 172 227 238 257 271 269 268 273 275
1 1 4 4 17 19 14 12 15 13 11 14 21 22 20 16 29 32 36 43 48 50 52 50 58 66 76 76 86 92 100 107 113 139 175 282 283 264 260 263 262 272 282
9 6 12 12 16 15 16 16 12 13 10 12 22 28 28 21 18 39 44 41 41 44 44 44 46 49 55 58 62 74 78 80 88 113 176 225 232 232 209 218 262 290 294
25 19 17 18 16 13 14 14 11 8 10 16 19 28 36 32 19 24 41 48 46 43 44 40 40 43 45 44 51 56 57 66 75 85 119 157 174 175 159 214 267 285 292
6 19 24 23 21 18 15 14 14 15 12 15 16 20 28 33 36 27 33 44 44 41 39 37 36 39 42 43 45 51 54 67 81 100 122 109 126 204 254 259 268 276 286